Time,TemperatureF,DewpointF,PressureIn,WindDirection,WindDirectionDegrees,WindSpeedMPH,WindSpeedGustMPH,Humidity,HourlyPrecipIn,Conditions,Clouds,dailyrainin,SoftwareType,DateUTC
2013-07-18 00:00:00,75.5,74.3,30.07,SSE,153,3.0,9.0,96,0.00,,,0.25,Wunderground v.1.15,2013-07-18 06:00:00,
2013-07-18 00:05:00,75.6,74.4,30.07,SSE,154,3.0,9.0,96,0.00,,,0.25,Wunderground v.1.15,2013-07-18 06:05:00,
2013-07-18 00:15:00,75.6,74.4,30.07,SSE,153,3.0,6.0,96,0.00,,,0.25,Wunderground v.1.15,2013-07-18 06:15:00,
2013-07-18 00:20:00,75.6,74.7,30.07,SSE,153,3.0,3.0,97,0.00,,,0.25,Wunderground v.1.15,2013-07-18 06:20:00,
2013-07-18 00:25:00,75.8,74.9,30.07,SSE,153,4.0,4.0,97,0.00,,,0.25,Wunderground v.1.15,2013-07-18 06:25:00,
2013-07-18 00:30:00,75.9,75.0,30.07,SSE,153,4.0,6.0,97,0.00,,,0.25,Wunderground v.1.15,2013-07-18 06:30:00,
2013-07-18 00:35:00,75.9,74.7,30.06,SSE,153,4.0,6.0,96,0.00,,,0.25,Wunderground v.1.15,2013-07-18 06:35:00,
2013-07-18 00:40:00,75.9,74.7,30.06,SSE,153,3.0,3.0,96,0.00,,,0.25,Wunderground v.1.15,2013-07-18 06:40:00,
2013-07-18 00:45:00,76.0,74.8,30.06,SSE,153,3.0,6.0,96,0.00,,,0.25,Wunderground v.1.15,2013-07-18 06:45:00,
2013-07-18 00:50:00,76.1,74.9,30.06,SSE,153,4.0,4.0,96,0.00,,,0.25,Wunderground v.1.15,2013-07-18 06:50:00,
2013-07-18 00:55:00,76.1,74.9,30.05,SSE,153,3.0,6.0,96,0.00,,,0.25,Wunderground v.1.15,2013-07-18 06:55:00,
2013-07-18 01:00:00,76.2,75.0,30.05,SSE,153,3.0,6.0,96,0.00,,,0.25,Wunderground v.1.15,2013-07-18 07:00:00,
2013-07-18 01:05:00,76.2,75.0,30.06,SSE,153,4.0,6.0,96,0.00,,,0.25,Wunderground v.1.15,2013-07-18 07:05:00,
2013-07-18 01:10:00,76.2,75.0,30.06,SSE,153,3.0,3.0,96,0.00,,,0.25,Wunderground v.1.15,2013-07-18 07:10:00,
2013-07-18 01:15:00,76.2,75.0,30.06,SSE,153,2.0,6.0,96,0.00,,,0.25,Wunderground v.1.15,2013-07-18 07:15:00,
2013-07-18 01:20:00,76.2,75.0,30.05,SSE,154,2.0,6.0,96,0.00,,,0.25,Wunderground v.1.15,2013-07-18 07:20:00,
2013-07-18 01:25:00,76.3,75.1,30.06,SSE,153,2.0,6.0,96,0.00,,,0.25,Wunderground v.1.15,2013-07-18 07:25:00,
2013-07-18 01:30:00,76.1,74.6,30.06,SSE,153,3.0,8.0,95,0.00,,,0.26,Wunderground v.1.15,2013-07-18 07:30:00,
2013-07-18 01:35:00,75.8,73.9,30.05,SSE,153,5.0,8.0,94,0.00,,,0.26,Wunderground v.1.15,2013-07-18 07:35:00,
2013-07-18 01:40:00,76.2,74.3,30.05,SSE,154,7.0,10.0,94,0.00,,,0.26,Wunderground v.1.15,2013-07-18 07:40:00,
2013-07-18 01:45:00,76.8,74.6,30.05,SSE,153,6.0,10.0,93,0.00,,,0.26,Wunderground v.1.15,2013-07-18 07:45:00,
2013-07-18 01:50:00,77.2,74.7,30.05,SSE,153,5.0,6.0,92,0.00,,,0.26,Wunderground v.1.15,2013-07-18 07:50:00,
2013-07-18 01:55:00,77.5,74.7,30.04,SSE,153,3.0,6.0,91,0.00,,,0.26,Wunderground v.1.15,2013-07-18 07:55:00,
2013-07-18 02:00:00,77.1,73.9,30.04,SSE,153,2.0,2.0,90,0.00,,,0.26,Wunderground v.1.15,2013-07-18 08:00:00,
2013-07-18 02:05:00,77.0,74.2,30.04,SSE,154,2.0,7.0,91,0.00,,,0.26,Wunderground v.1.15,2013-07-18 08:05:00,
2013-07-18 02:15:00,76.7,74.2,30.04,SSE,153,1.0,2.0,92,0.00,,,0.26,Wunderground v.1.15,2013-07-18 08:15:00,
2013-07-18 02:20:00,76.6,74.4,30.04,SSE,153,2.0,7.0,93,0.00,,,0.26,Wunderground v.1.15,2013-07-18 08:20:00,
2013-07-18 02:25:00,76.5,74.6,30.04,SSE,154,3.0,7.0,94,0.00,,,0.26,Wunderground v.1.15,2013-07-18 08:25:00,
2013-07-18 02:30:00,76.6,74.7,30.04,SSE,153,3.0,3.0,94,0.00,,,0.26,Wunderground v.1.15,2013-07-18 08:30:00,
2013-07-18 02:35:00,76.5,74.6,30.04,SSE,153,2.0,7.0,94,0.00,,,0.26,Wunderground v.1.15,2013-07-18 08:35:00,
2013-07-18 02:40:00,76.4,74.9,30.04,SSE,153,2.0,2.0,95,0.00,,,0.26,Wunderground v.1.15,2013-07-18 08:40:00,
2013-07-18 02:45:00,76.3,74.8,30.04,SSE,153,1.0,7.0,95,0.00,,,0.26,Wunderground v.1.15,2013-07-18 08:45:00,
2013-07-18 02:50:00,76.1,74.6,30.04,SSE,153,1.0,7.0,95,0.00,,,0.26,Wunderground v.1.15,2013-07-18 08:50:00,
2013-07-18 02:55:00,76.0,74.5,30.03,SSE,154,2.0,7.0,95,0.00,,,0.26,Wunderground v.1.15,2013-07-18 08:55:00,
2013-07-18 03:00:00,76.0,74.8,30.03,SSE,153,2.0,7.0,96,0.00,,,0.26,Wunderground v.1.15,2013-07-18 09:00:00,
2013-07-18 03:05:00,75.9,74.7,30.03,SSE,153,3.0,7.0,96,0.00,,,0.26,Wunderground v.1.15,2013-07-18 09:05:00,
2013-07-18 03:10:00,75.9,74.7,30.03,SSE,153,2.0,4.0,96,0.00,,,0.26,Wunderground v.1.15,2013-07-18 09:10:00,
2013-07-18 03:15:00,76.0,74.8,30.03,SSE,153,3.0,4.0,96,0.00,,,0.26,Wunderground v.1.15,2013-07-18 09:15:00,
2013-07-18 03:20:00,75.9,74.7,30.03,SSE,153,3.0,3.0,96,0.00,,,0.26,Wunderground v.1.15,2013-07-18 09:20:00,
2013-07-18 03:25:00,76.1,75.2,30.03,SSE,153,3.0,5.0,97,0.00,,,0.26,Wunderground v.1.15,2013-07-18 09:25:00,
2013-07-18 03:30:00,76.1,75.2,30.03,SSE,153,3.0,3.0,97,0.00,,,0.26,Wunderground v.1.15,2013-07-18 09:30:00,
2013-07-18 03:35:00,76.2,75.3,30.03,SSE,153,3.0,4.0,97,0.00,,,0.26,Wunderground v.1.15,2013-07-18 09:35:00,
2013-07-18 03:40:00,76.2,75.3,30.03,SSE,153,3.0,3.0,97,0.00,,,0.26,Wunderground v.1.15,2013-07-18 09:40:00,
2013-07-18 03:45:00,76.2,75.3,30.02,SSE,153,3.0,4.0,97,0.00,,,0.26,Wunderground v.1.15,2013-07-18 09:45:00,
2013-07-18 03:50:00,76.3,75.4,30.02,SSE,153,3.0,4.0,97,0.00,,,0.26,Wunderground v.1.15,2013-07-18 09:50:00,
2013-07-18 03:55:00,76.4,75.5,30.03,SSE,153,3.0,4.0,97,0.00,,,0.26,Wunderground v.1.15,2013-07-18 09:55:00,
2013-07-18 04:00:00,76.4,75.5,30.03,SSE,154,3.0,3.0,97,0.00,,,0.26,Wunderground v.1.15,2013-07-18 10:00:00,
2013-07-18 04:05:00,76.4,75.5,30.03,SSE,154,3.0,5.0,97,0.00,,,0.26,Wunderground v.1.15,2013-07-18 10:05:00,
2013-07-18 04:10:00,76.4,75.5,30.03,SSE,153,3.0,5.0,97,0.00,,,0.26,Wunderground v.1.15,2013-07-18 10:10:00,
2013-07-18 04:15:00,76.4,75.5,30.03,SSE,153,4.0,5.0,97,0.00,,,0.26,Wunderground v.1.15,2013-07-18 10:15:00,
2013-07-18 04:20:00,76.4,75.5,30.03,SSE,153,3.0,3.0,97,0.00,,,0.26,Wunderground v.1.15,2013-07-18 10:20:00,
2013-07-18 04:25:00,76.4,75.5,30.03,SSE,153,1.0,5.0,97,0.00,,,0.26,Wunderground v.1.15,2013-07-18 10:25:00,
2013-07-18 05:20:00,-999.9,-99.9,-32.77,North,32767,-999.0,5.0,255,-99.99,,,0.00,Wunderground v.1.15,2013-07-18 11:20:00,
2013-07-18 05:23:00,-999.9,-99.9,-32.77,North,32767,-999.0,5.0,255,-99.99,,,0.00,Wunderground v.1.15,2013-07-18 11:23:00,
2013-07-18 05:24:00,-999.9,-99.9,-32.77,North,32767,-999.0,5.0,255,-99.99,,,0.00,Wunderground v.1.15,2013-07-18 11:24:00,
2013-07-18 05:28:00,-999.9,-99.9,-32.77,North,32767,-999.0,0.0,255,-99.99,,,0.00,Wunderground v.1.15,2013-07-18 11:28:00,
2013-07-18 05:29:00,-999.9,-99.9,-32.77,North,32767,-999.0,0.0,255,-99.99,,,0.00,Wunderground v.1.15,2013-07-18 11:29:00,
2013-07-18 05:37:00,-999.9,-99.9,-32.77,North,32767,-999.0,5.0,255,-99.99,,,0.00,Wunderground v.1.15,2013-07-18 11:37:00,
2013-07-18 05:38:00,-999.9,-99.9,-32.77,North,32767,-999.0,5.0,255,-99.99,,,0.00,Wunderground v.1.15,2013-07-18 11:38:00,
2013-07-18 05:39:00,-999.9,-99.9,-32.77,North,32767,-999.0,5.0,255,-99.99,,,0.00,Wunderground v.1.15,2013-07-18 11:39:00,